This is the latest recevied weather packets stored in our database for station/object K4MUW-4. If no packets are shown the sender has not sent any weather packets the latest 10 day(s).
| Time | Temp. | Humidity | Pressure | Rain* | Wind** | Luminosity | Snow |
|---|---|---|---|---|---|---|---|
| 1777835951 | 19.44° C | 27% | 1017 hPa | 0 mm | 0 m/s | - | - |
| 1777835651 | 19.44° C | 28% | 1017 hPa | 0 mm | 1.79 m/s, 183° | - | - |
| 1777835351 | 19.44° C | 28% | 1017 hPa | 0 mm | 2.24 m/s, 186° | - | - |
| 1777835050 | 19.44° C | 28% | 1017 hPa | 0 mm | 1.79 m/s, 310° | - | - |
| 1777834750 | 19.44° C | 29% | 1017 hPa | 0 mm | 0 m/s | - | - |
| 1777834450 | 19.44° C | 31% | 1017 hPa | 0 mm | 1.34 m/s, 208° | - | - |
| 1777834149 | 19.44° C | 31% | 1017 hPa | 0 mm | 1.79 m/s, 301° | - | - |
| 1777833849 | 19.44° C | 33% | 1017 hPa | 0 mm | 2.68 m/s, 197° | - | - |
| 1777833548 | 19.44° C | 32% | 1017 hPa | 0 mm | 0 m/s | - | - |
| 1777833248 | 19.44° C | 31% | 1017 hPa | 0 mm | 1.34 m/s, 285° | - | - |
| 1777832947 | 19.44° C | 33% | 1017 hPa | 0 mm | 1.79 m/s, 206° | - | - |
| 1777832647 | 18.89° C | 33% | 1017 hPa | 0 mm | 1.79 m/s, 200° | - | - |
| 1777832347 | 18.89° C | 33% | 1017 hPa | 0 mm | 0 m/s | - | - |
| 1777832042 | 18.33° C | 33% | 1017 hPa | 0 mm | 2.24 m/s, 186° | - | - |
| 1777831742 | 18.33° C | 33% | 1017 hPa | 0 mm | 0 m/s | - | - |
| 1777831441 | 18.33° C | 33% | 1017 hPa | 0 mm | 1.79 m/s, 6° | - | - |
| 1777831187 | 18.33° C | 34% | 1018 hPa | 0 mm | 1.34 m/s, 293° | - | - |
| 1777831141 | 18.33° C | 33% | 1018 hPa | 0 mm | 1.79 m/s, 6° | - | - |
| 1777830840 | 18.33° C | 34% | 1018 hPa | 0 mm | 1.34 m/s, 293° | - | - |
| 1777830540 | 18.33° C | 34% | 1018 hPa | 0 mm | 0 m/s | - | - |
| 1777830240 | 17.78° C | 34% | 1017 hPa | 0 mm | 1.79 m/s, 183° | - | - |
| 1777829939 | 17.78° C | 34% | 1017 hPa | 0 mm | 0 m/s | - | - |
| 1777829639 | 17.78° C | 33% | 1017 hPa | 0 mm | 1.34 m/s, 301° | - | - |
| 1777829339 | 17.22° C | 34% | 1018 hPa | 0 mm | 0 m/s | - | - |
| 1777829038 | 17.22° C | 34% | 1018 hPa | 0 mm | 1.34 m/s, 322° | - | - |
* Rain latest hour (hover to see other rain measurements)
** Current wind speed in m/s (hover to see current wind gust speed)